CZ-2D DEB, 43402

Orbit data source: Space-Track

CZ-2D DEB, 43402 is space debris in SSO originally from a launch on Sat, 29 Sep 2012 UTC launched from the Jiuquan Satellite Launch Center, China (JSC). Debris objects in space refer to the collection of defunct objects orbiting the Earth. Examples of debris include non-operational satellites, rocket bodies, and fragments generated from explosions, collisions, or faulty payload assembly.

Loading next visibility...
Identifier
43402, 2012-052B
Orbit
SSO
Country
Flag of CNCN / PRC
Related business
Manufacturer
SAST
Mission
Spacecraft
Bus & Motor
Unknown
Mass
Unknown
Launch date (UTC)
2012-09-29 (14 years ago)
Launch vehicle
Unknown
Launch site
Jiuquan Satellite Launch Center, China (JSC)
Object type
Payload
Rocket body
Debris
Shape & HBR
Unknown shape, 0.1 m
Radar Cross Section
Small (<0.1 m²)

Expand to show TLE details & history
Last TLE update: 3 days ago

TLE from 3 days ago
0 CZ-2D DEB
1 43402U 12052B   26170.20764304  .00001258  00000-0  32592-3 0  9995
2 43402  98.0825 266.8788 0204379  40.5761 321.0461 14.39709527655066
Epoch: 2026-06-19T04:59Z
TLE epoch observation values (Epoch: 2026-06-19T04:59:00.358Z)
Latitude
0.00003°
Longitude
-75.31262°
Altitude
650.162 km
Speed
7.592 km/s
True Right ascension
17h 47m 30s
True Declination
0° 00' 00"
Sunlit
Object was in full shadow at epoch
Visualization orbit readout
Latitude
Unknown
Longitude
Unknown
Altitude
Unknown
Speed
Unknown
Apparent Right ascension
Unknown
Apparent Declination
Unknown
Sunlit
N/A
Visualization observer readout
Local Sidereal Time
21:39:48
Azimuth
Unknown
Elevation
Unknown
Doppler factor
Unknown
Orbital elements
Apogee altitude
902.378 km
Perigee altitude
610.741 km
Semi-major axis
7,134.697 km
Eccentricity
0.02044
Inclination
98.0825°
RAAN
266.8788°
Arg. of periapsis
40.5761°
True anomaly
319.54404°
Mean anomaly
321.0461°
Eccentric anomaly
320.29807°
Mean motion
3.60147 °/min
Orbital period
99.96 mins
BSTAR
0.00032592
Loading maneuver chart data...
Computing Atmospheric mass density...
Loading historical data...
Loading historical data...
Loading historical data...
Loading historical data...
Loading historical data...
Loading historical data...
Loading historical data...
Other satellites on launch #52 in the year 2012 (2012-09-29 UTC)

Documentation

Showing up to 5 results
|